| time (UTC) | temp F | wind direction | speed MPH | gust MPH | rain 1hr in | rain 24hr in | rain mn in | humidity % | barometer mb |
| 20260510214544 | 42 | 321 | 3.0 | 11.0 | 0.00 | 0.00 | 0.00 | 57 | 1019.6 |
| 20260510213048 | 42 | 321 | 2.0 | 14.0 | 0.00 | 0.00 | 0.00 | 56 | 1019.5 |
| 20260510211551 | 43 | 312 | 5.0 | 16.0 | 0.00 | 0.00 | 0.00 | 54 | 1019.3 |
| 20260510204545 | 44 | 88 | 5.0 | 15.0 | 0.00 | 0.00 | 0.00 | 52 | 1019.2 |
| 20260510203044 | 42 | 311 | 3.0 | 11.0 | 0.00 | 0.00 | 0.00 | 57 | 1019.2 |
| 20260510201542 | 43 | 23 | 6.0 | 14.0 | 0.00 | 0.00 | 0.00 | 52 | 1019.1 |
| 20260510200046 | 44 | 325 | 5.0 | 16.0 | 0.00 | 0.00 | 0.00 | 49 | 1018.8 |
| 20260510194545 | 43 | 292 | 5.0 | 14.0 | 0.00 | 0.00 | 0.00 | 50 | 1018.5 |
| 20260510193059 | 44 | 317 | 2.0 | 12.0 | 0.00 | 0.00 | 0.00 | 50 | 1018.4 |
| 20260510191542 | 44 | 286 | 7.0 | 13.0 | 0.00 | 0.00 | 0.00 | 58 | 1018.3 |
| 20260510190056 | 43 | 0 | 8.0 | 17.0 | 0.00 | 0.00 | 0.00 | 59 | 1018.2 |
| 20260510184547 | 43 | 158 | 4.0 | 11.0 | 0.00 | 0.00 | 0.00 | 56 | 1018.1 |
| 20260510183051 | 43 | 34 | 3.0 | 15.0 | 0.00 | 0.00 | 0.00 | 58 | 1018.0 |
| 20260510181546 | 42 | 290 | 5.0 | 14.0 | 0.00 | 0.00 | 0.00 | 60 | 1017.8 |
| 20260510180053 | 42 | 326 | 7.0 | 15.0 | 0.00 | 0.00 | 0.00 | 61 | 1017.6 |
| 20260510174542 | 42 | 302 | 10.0 | 15.0 | 0.00 | 0.00 | 0.00 | 62 | 1017.5 |
| 20260510173046 | 43 | 20 | 6.0 | 16.0 | 0.00 | 0.00 | 0.00 | 61 | 1017.5 |
| 20260510171546 | 43 | 325 | 8.0 | 11.0 | 0.00 | 0.00 | 0.00 | 65 | 1017.1 |
| 20260510170056 | 43 | 298 | 6.0 | 15.0 | 0.00 | 0.00 | 0.00 | 64 | 1017.1 |
| 20260510164558 | 43 | 336 | 6.0 | 14.0 | 0.00 | 0.00 | 0.00 | 67 | 1017.1 |
| 20260510163044 | 42 | 315 | 8.0 | 15.0 | 0.00 | 0.00 | 0.00 | 69 | 1017.0 |
| 20260510161550 | 43 | 287 | 3.0 | 10.0 | 0.00 | 0.00 | 0.00 | 70 | 1016.9 |
| 20260510160056 | 41 | 317 | 3.0 | 12.0 | 0.00 | 0.00 | 0.00 | 77 | 1016.7 |
| 20260510154552 | 40 | 286 | 3.0 | 17.0 | 0.00 | 0.00 | 0.00 | 75 | 1016.5 |
| 20260510153045 | 40 | 0 | 2.0 | 10.0 | 0.00 | 0.00 | 0.00 | 84 | 1016.3 |
| 20260510151548 | 38 | 295 | 2.0 | 11.0 | 0.00 | 0.00 | 0.00 | 81 | 1016.4 |
| 20260510150051 | 39 | 319 | 6.0 | 15.0 | 0.00 | 0.00 | 0.00 | 78 | 1016.2 |
| 20260510144545 | 39 | 289 | 9.0 | 14.0 | 0.00 | 0.00 | 0.00 | 76 | 1015.9 |
| 20260510143050 | 39 | 287 | 6.0 | 14.0 | 0.00 | 0.00 | 0.00 | 78 | 1015.8 |
| 20260510141548 | 39 | 350 | 4.0 | 9.0 | 0.00 | 0.00 | 0.00 | 78 | 1015.7 |
| 20260510140044 | 39 | 277 | 4.0 | 16.0 | 0.00 | 0.00 | 0.00 | 73 | 1015.5 |
| 20260510134546 | 41 | 340 | 4.0 | 14.0 | 0.00 | 0.00 | 0.00 | 71 | 1015.1 |
| 20260510133047 | 39 | 327 | 5.0 | 9.0 | 0.00 | 0.00 | 0.00 | 72 | 1015.0 |
| 20260510131548 | 39 | 333 | 8.0 | 15.0 | 0.00 | 0.00 | 0.00 | 77 | 1015.0 |
| 20260510130046 | 38 | 309 | 7.0 | 15.0 | 0.00 | 0.00 | 0.00 | 76 | 1014.7 |
| 20260510124605 | 37 | 310 | 5.0 | 11.0 | 0.00 | 0.00 | 0.00 | 78 | 1014.6 |
| 20260510123046 | 35 | 317 | 4.0 | 8.0 | 0.00 | 0.00 | 0.00 | 81 | 1014.5 |
| 20260510121545 | 34 | 316 | 2.0 | 5.0 | 0.00 | 0.00 | 0.00 | 80 | 1014.2 |
| 20260510120044 | 34 | 273 | 2.0 | 6.0 | 0.00 | 0.00 | 0.00 | 83 | 1014.2 |
| 20260510114542 | 33 | 285 | 2.0 | 6.0 | 0.00 | 0.00 | 0.00 | 84 | 1014.1 |
| 20260510113059 | 32 | 281 | 3.0 | 7.0 | 0.00 | 0.00 | 0.00 | 87 | 1013.7 |
| 20260510111604 | 32 | 267 | 2.0 | 4.0 | 0.00 | 0.00 | 0.00 | 87 | 1013.5 |
| 20260510110047 | 31 | 240 | 3.0 | 4.0 | 0.00 | 0.00 | 0.00 | 87 | 1013.5 |
| 20260510104600 | 30 | 0 | 0.0 | 0.0 | 0.00 | 0.00 | 0.00 | 87 | 1013.3 |
| 20260510103050 | 30 | 0 | 0.0 | 3.0 | 0.00 | 0.00 | 0.00 | 87 | 1013.1 |
| 20260510101548 | 30 | 0 | 0.0 | 3.0 | 0.00 | 0.00 | 0.00 | 88 | 1012.9 |
| 20260510100047 | 29 | 0 | 0.0 | 0.0 | 0.00 | 0.00 | 0.00 | 88 | 1012.6 |
| 20260510094548 | 28 | 0 | 0.0 | 0.0 | 0.00 | 0.00 | 0.00 | 87 | 1012.6 |
| 20260510093044 | 28 | 0 | 0.0 | 0.0 | 0.00 | 0.00 | 0.00 | 85 | 1012.5 |
| 20260510091552 | 29 | 0 | 0.0 | 0.0 | 0.00 | 0.00 | 0.00 | 85 | 1012.4 |
| 20260510090047 | 29 | 0 | 0.0 | 0.0 | 0.00 | 0.00 | 0.00 | 84 | 1012.3 |
| 20260510084555 | 29 | 0 | 0.0 | 0.0 | 0.00 | 0.00 | 0.00 | 86 | 1012.1 |
| 20260510083046 | 30 | 0 | 0.0 | 1.0 | 0.00 | 0.00 | 0.00 | 86 | 1011.9 |
| 20260510081546 | 29 | 0 | 0.0 | 1.0 | 0.00 | 0.00 | 0.00 | 84 | 1011.9 |
| 20260510080042 | 30 | 0 | 0.0 | 0.0 | 0.00 | 0.00 | 0.00 | 82 | 1011.8 |
| 20260510074545 | 30 | 0 | 0.0 | 0.0 | 0.00 | 0.00 | 0.00 | 81 | 1011.8 |
| 20260510073048 | 31 | 0 | 0.0 | 0.0 | 0.00 | 0.00 | 0.00 | 80 | 1011.8 |
| 20260510071546 | 31 | 0 | 0.0 | 0.0 | 0.00 | 0.00 | 0.00 | 80 | 1011.8 |
| 20260510070049 | 31 | 0 | 0.0 | 0.0 | 0.00 | 0.00 | 0.00 | 79 | 1011.7 |
| 20260510064557 | 32 | 0 | 0.0 | 0.0 | 0.00 | 0.00 | 0.00 | 77 | 1011.8 |
| 20260510063048 | 32 | 0 | 0.0 | 0.0 | 0.00 | 0.00 | 0.00 | 76 | 1011.8 |
| 20260510061551 | 33 | 0 | 0.0 | 0.0 | 0.00 | 0.00 | 0.00 | 76 | 1011.5 |
| 20260510060046 | 34 | 0 | 0.0 | 0.0 | 0.00 | 0.00 | 0.00 | 73 | 1011.7 |
| 20260510054544 | 34 | 0 | 0.0 | 0.0 | 0.00 | 0.00 | 0.00 | 75 | 1011.7 |
| 20260510053044 | 34 | 0 | 0.0 | 0.0 | 0.00 | 0.00 | 0.00 | 73 | 1011.5 |
| 20260510051547 | 34 | 0 | 0.0 | 0.0 | 0.00 | 0.00 | 0.00 | 75 | 1011.4 |
| 20260510050049 | 33 | 0 | 0.0 | 3.0 | 0.00 | 0.00 | 0.00 | 76 | 1011.3 |
| 20260510044553 | 32 | 0 | 0.0 | 3.0 | 0.00 | 0.00 | 0.00 | 78 | 1011.2 |
| 20260510043045 | 32 | 0 | 0.0 | 0.0 | 0.00 | 0.00 | 0.00 | 77 | 1011.2 |
| 20260510041540 | 32 | 0 | 0.0 | 0.0 | 0.00 | 0.00 | 0.00 | 76 | 1011.0 |
| 20260510040042 | 33 | 0 | 0.0 | 0.0 | 0.00 | 0.00 | 0.00 | 73 | 1011.0 |
| 20260510034556 | 34 | 0 | 0.0 | 0.0 | 0.00 | 0.00 | 0.00 | 71 | 1010.7 |
| 20260510033048 | 34 | 0 | 0.0 | 0.0 | 0.00 | 0.00 | 0.00 | 71 | 1010.6 |
| 20260510031550 | 35 | 0 | 0.0 | 0.0 | 0.00 | 0.00 | 0.00 | 68 | 1010.6 |
| 20260510030053 | 36 | 0 | 0.0 | 0.0 | 0.00 | 0.00 | 0.00 | 65 | 1010.6 |
| 20260510024548 | 37 | 0 | 0.0 | 0.0 | 0.00 | 0.00 | 0.00 | 62 | 1010.5 |
| 20260510023045 | 38 | 0 | 0.0 | 0.0 | 0.00 | 0.00 | 0.00 | 61 | 1010.4 |
| 20260510021545 | 40 | 0 | 0.0 | 0.0 | 0.00 | 0.00 | 0.00 | 56 | 1010.3 |
| 20260510020045 | 41 | 0 | 0.0 | 4.0 | 0.00 | 0.00 | 0.00 | 54 | 1010.1 |
| 20260510014543 | 42 | 297 | 2.0 | 9.0 | 0.00 | 0.00 | 0.00 | 54 | 1009.8 |
| 20260510013050 | 43 | 0 | 4.0 | 10.0 | 0.00 | 0.00 | 0.00 | 53 | 1009.5 |
| 20260510011546 | 43 | 311 | 5.0 | 12.0 | 0.00 | 0.00 | 0.00 | 51 | 1009.3 |
| 20260510010046 | 43 | 329 | 4.0 | 11.0 | 0.00 | 0.00 | 0.00 | 50 | 1009.1 |
| 20260510004545 | 43 | 327 | 2.0 | 7.0 | 0.00 | 0.00 | 0.00 | 49 | 1008.8 |
| 20260510003053 | 43 | 335 | 2.0 | 9.0 | 0.00 | 0.00 | 0.00 | 49 | 1008.8 |
| 20260510001549 | 44 | 322 | 3.0 | 13.0 | 0.00 | 0.00 | 0.00 | 50 | 1008.6 |
| 20260510000047 | 44 | 317 | 6.0 | 13.0 | 0.00 | 0.00 | 0.00 | 50 | 1008.6 |
| 20260509234559 | 44 | 52 | 3.0 | 11.0 | 0.00 | 0.00 | 0.00 | 46 | 1008.4 |
| 20260509233053 | 44 | 332 | 3.0 | 14.0 | 0.00 | 0.00 | 0.00 | 50 | 1008.2 |
| 20260509231603 | 44 | 350 | 6.0 | 16.0 | 0.00 | 0.00 | 0.00 | 47 | 1008.1 |
| 20260509230059 | 45 | 66 | 5.0 | 16.0 | 0.00 | 0.00 | 0.00 | 45 | 1008.1 |
| 20260509224544 | 46 | 309 | 8.0 | 18.0 | 0.00 | 0.00 | 0.00 | 43 | 1007.8 |
| 20260509223045 | 46 | 50 | 5.0 | 16.0 | 0.00 | 0.00 | 0.00 | 45 | 1007.8 |
| 20260509221543 | 46 | 316 | 6.0 | 17.0 | 0.00 | 0.00 | 0.00 | 43 | 1007.8 |
| 20260509220044 | 46 | 300 | 12.0 | 29.0 | 0.00 | 0.00 | 0.00 | 49 | 1007.3 |